Погода в Медете

Россия / Омская область     54°11′03″N   75°32′29″E
темп.,
°C
ветер,
м/с
пор.,
м/с
влажн.,
%
обл.,
%
осадки,
мм/ч
давл.,
гПа
погр.,
м
13 мая, чт
чт1300:00+13с71353100 0.2 1019575
03:00+10с5964100 0.0 1019367
06:00+9ссз5116898 0.0 1020664
09:00+12с8114032 0.0 10201094
12:00+16ссз81029100 0.0 10191590
15:00+17сз8932100 0.0 10191751
18:00+11сз6971100 0.0 1019467
21:00+10ссз487672 0.0 1020319
14 мая, пт
пт1400:00+9с49855 0.0 1021231
03:00+8с4109052 0.0 1022228
06:00+8с4108874 0.0 1024304
09:00+13ссв5661100 0.0 1026811
12:00+17с464178 0.0 10261350
15:00+19с5524100 0.0 10261564
18:00+20ссз45218 0.0 10261519
21:00+16сз22300 0.0 102611
15 мая, сб
сб1500:00+14зюз22365 0.0 102614
03:00+12юз464125 0.0 102572
06:00+13юз494397 0.0 1024146
09:00+17зюз5945100 0.1 1024264
12:00+25зюз793023 0.1 10221114
15:00+29з79255 0.0 10193462
18:00+29зсз692337 0.0 10183157
21:00+21ю58505 0.5 1017110
16 мая, вс
вс1600:00+18зсз512605 2.1 1018249
03:00+17зсз1266100 1.2 101614
06:00+17зюз486647 1.2 1016145
09:00+22сз685137 0.0 1017697
12:00+25сз55395 0.0 10171376
15:00+27ссз453383 0.0 10162684
18:00+26с673699 0.0 10171081
21:00+20св46555 0.0 101898
17 мая, пн
пн1700:00+18юв116261 0.0 101911
03:00+17зюз22655 0.0 101912
06:00+17зюз34667 0.0 101954
09:00+24зюз574460 0.0 1019609
12:00+28з56325 0.0 10171279
15:00+31з69255 0.0 10153561
18:00+31зсз69208 0.0 10133355
21:00+24ююз464086 0.0 101391